| time (UTC) | temp F | wind direction | speed MPH | gust MPH | rain 1hr in | rain 24hr in | rain mn in | humidity % | barometer mb |
| 20260831060113 | 59 | 53 | 5.0 | 9.0 | 0.00 | 0.00 | 0.00 | 29 | 1010.0 |
| 20260831054600 | 60 | 60 | 5.0 | 7.0 | 0.00 | 0.00 | 0.00 | 27 | 1010.0 |
| 20260831053059 | 58 | 54 | 3.0 | 5.0 | 0.00 | 0.00 | 0.00 | 29 | 1010.0 |
| 20260831051553 | 59 | 7 | 0.0 | 4.0 | 0.00 | 0.00 | 0.00 | 29 | 1010.0 |
| 20260831050112 | 60 | 70 | 0.0 | 2.0 | 0.00 | 0.00 | 0.00 | 27 | 1009.7 |
| 20260831044548 | 61 | 50 | 0.0 | 2.0 | 0.00 | 0.00 | 0.00 | 26 | 1009.7 |
| 20260831043049 | 62 | 71 | 0.0 | 3.0 | 0.00 | 0.00 | 0.00 | 24 | 1009.8 |
| 20260831041548 | 61 | 42 | 1.0 | 3.0 | 0.00 | 0.00 | 0.00 | 25 | 1009.7 |
| 20260831040050 | 62 | 44 | 0.0 | 2.0 | 0.00 | 0.00 | 0.00 | 26 | 1009.6 |
| 20260831034540 | 63 | 75 | 0.0 | 1.0 | 0.00 | 0.00 | 0.00 | 23 | 1009.4 |
| 20260831033038 | 63 | 63 | 0.0 | 1.0 | 0.00 | 0.00 | 0.00 | 24 | 1009.2 |
| 20260831031505 | 65 | 61 | 0.0 | 0.0 | 0.00 | 0.00 | 0.00 | 23 | 1009.0 |
| 20260831030105 | 67 | 60 | 0.0 | 0.0 | 0.00 | 0.00 | 0.00 | 20 | 1008.8 |
| 20260831024556 | 68 | 60 | 0.0 | 1.0 | 0.00 | 0.00 | 0.00 | 18 | 1008.6 |
| 20260831023050 | 70 | 10 | 0.0 | 0.0 | 0.00 | 0.00 | 0.00 | 18 | 1008.5 |
| 20260831021546 | 72 | 356 | 0.0 | 1.0 | 0.00 | 0.00 | 0.00 | 16 | 1008.3 |
| 20260831020043 | 74 | 353 | 0.0 | 4.0 | 0.00 | 0.00 | 0.00 | 16 | 1008.2 |
| 20260831014545 | 76 | 343 | 2.0 | 6.0 | 0.00 | 0.00 | 0.00 | 15 | 1008.2 |
| 20260831013035 | 77 | 299 | 2.0 | 7.0 | 0.00 | 0.00 | 0.00 | 14 | 1008.3 |
| 20260831011537 | 78 | 335 | 2.0 | 10.0 | 0.00 | 0.00 | 0.00 | 14 | 1008.2 |
| 20260831010028 | 79 | 301 | 3.0 | 9.0 | 0.00 | 0.00 | 0.00 | 13 | 1008.4 |
| 20260831004525 | 80 | 332 | 5.0 | 9.0 | 0.00 | 0.00 | 0.00 | 13 | 1008.4 |
| 20260831003022 | 80 | 18 | 3.0 | 10.0 | 0.00 | 0.00 | 0.00 | 13 | 1008.4 |
| 20260831001519 | 80 | 233 | 3.0 | 12.0 | 0.00 | 0.00 | 0.00 | 12 | 1008.4 |
| 20260831000017 | 80 | 297 | 5.0 | 9.0 | 0.00 | 0.00 | 0.00 | 12 | 1008.4 |
| 20260830234513 | 81 | 250 | 6.0 | 14.0 | 0.00 | 0.00 | 0.00 | 12 | 1008.4 |
| 20260830233020 | 80 | 349 | 4.0 | 14.0 | 0.00 | 0.00 | 0.00 | 12 | 1008.4 |
| 20260830231512 | 81 | 266 | 6.0 | 12.0 | 0.00 | 0.00 | 0.00 | 13 | 1008.5 |
| 20260830230012 | 81 | 290 | 2.0 | 6.0 | 0.00 | 0.00 | 0.00 | 13 | 1008.5 |
| 20260830224508 | 80 | 259 | 4.0 | 12.0 | 0.00 | 0.00 | 0.00 | 13 | 1008.6 |
| 20260830223009 | 81 | 231 | 4.0 | 12.0 | 0.00 | 0.00 | 0.00 | 13 | 1008.7 |
| 20260830221506 | 80 | 212 | 3.0 | 7.0 | 0.00 | 0.00 | 0.00 | 14 | 1009.0 |
| 20260830220011 | 79 | 296 | 0.0 | 6.0 | 0.00 | 0.00 | 0.00 | 14 | 1009.1 |
| 20260830214502 | 80 | 345 | 2.0 | 12.0 | 0.00 | 0.00 | 0.00 | 14 | 1009.3 |
| 20260830213002 | 80 | 245 | 1.0 | 9.0 | 0.00 | 0.00 | 0.00 | 15 | 1009.5 |
| 20260830211505 | 79 | 256 | 6.0 | 12.0 | 0.00 | 0.00 | 0.00 | 16 | 1009.9 |
| 20260830210001 | 79 | 279 | 3.0 | 12.0 | 0.00 | 0.00 | 0.00 | 16 | 1010.0 |
| 20260830204612 | 78 | 353 | 3.0 | 9.0 | 0.00 | 0.00 | 0.00 | 18 | 1010.1 |
| 20260830203058 | 78 | 307 | 3.0 | 11.0 | 0.00 | 0.00 | 0.00 | 17 | 1010.2 |
| 20260830201613 | 77 | 150 | 4.0 | 9.0 | 0.00 | 0.00 | 0.00 | 17 | 1010.2 |
| 20260830194554 | 76 | 141 | 0.0 | 9.0 | 0.00 | 0.00 | 0.00 | 18 | 1010.5 |
| 20260830193055 | 77 | 279 | 4.0 | 12.0 | 0.00 | 0.00 | 0.00 | 17 | 1010.7 |
| 20260830191619 | 76 | 210 | 1.0 | 10.0 | 0.00 | 0.00 | 0.00 | 17 | 1010.8 |
| 20260830190107 | 75 | 213 | 2.0 | 6.0 | 0.00 | 0.00 | 0.00 | 19 | 1010.9 |
| 20260830184556 | 74 | 203 | 0.0 | 7.0 | 0.00 | 0.00 | 0.00 | 19 | 1011.1 |
| 20260830183148 | 74 | 221 | 0.0 | 7.0 | 0.00 | 0.00 | 0.00 | 21 | 1011.1 |
| 20260830181548 | 73 | 235 | 2.0 | 8.0 | 0.00 | 0.00 | 0.00 | 22 | 1011.3 |
| 20260830180047 | 72 | 224 | 1.0 | 8.0 | 0.00 | 0.00 | 0.00 | 24 | 1011.3 |
| 20260830174553 | 71 | 256 | 4.0 | 7.0 | 0.00 | 0.00 | 0.00 | 25 | 1011.3 |
| 20260830173047 | 70 | 243 | 2.0 | 7.0 | 0.00 | 0.00 | 0.00 | 27 | 1011.4 |
| 20260830171542 | 68 | 225 | 1.0 | 5.0 | 0.00 | 0.00 | 0.00 | 27 | 1011.4 |
| 20260830170041 | 67 | 212 | 0.0 | 5.0 | 0.00 | 0.00 | 0.00 | 31 | 1011.5 |
| 20260830164540 | 65 | 226 | 0.0 | 4.0 | 0.00 | 0.00 | 0.00 | 33 | 1011.6 |
| 20260830163041 | 63 | 215 | 0.0 | 2.0 | 0.00 | 0.00 | 0.00 | 38 | 1011.7 |
| 20260830161542 | 62 | 58 | 0.0 | 3.0 | 0.00 | 0.00 | 0.00 | 42 | 1011.8 |
| 20260830160041 | 60 | 359 | 0.0 | 3.0 | 0.00 | 0.00 | 0.00 | 45 | 1011.9 |
| 20260830154538 | 58 | 330 | 0.0 | 4.0 | 0.00 | 0.00 | 0.00 | 48 | 1011.9 |
| 20260830153034 | 58 | 356 | 0.0 | 4.0 | 0.00 | 0.00 | 0.00 | 49 | 1011.9 |
| 20260830151527 | 57 | 331 | 1.0 | 2.0 | 0.00 | 0.00 | 0.00 | 51 | 1011.8 |
| 20260830150025 | 57 | 270 | 0.0 | 1.0 | 0.00 | 0.00 | 0.00 | 51 | 1011.9 |
| 20260830144524 | 55 | 268 | 0.0 | 2.0 | 0.00 | 0.00 | 0.00 | 54 | 1011.8 |
| 20260830143018 | 54 | 65 | 0.0 | 0.0 | 0.00 | 0.00 | 0.00 | 56 | 1011.7 |
| 20260830141518 | 54 | 65 | 0.0 | 0.0 | 0.00 | 0.00 | 0.00 | 55 | 1011.7 |
| 20260830140018 | 51 | 65 | 0.0 | 0.0 | 0.00 | 0.00 | 0.00 | 59 | 1011.4 |
| 20260830134514 | 49 | 66 | 0.0 | 3.0 | 0.00 | 0.00 | 0.00 | 60 | 1011.2 |
| 20260830133010 | 49 | 68 | 0.0 | 1.0 | 0.00 | 0.00 | 0.00 | 62 | 1011.0 |
| 20260830131515 | 48 | 67 | 0.0 | 0.0 | 0.00 | 0.00 | 0.00 | 64 | 1010.9 |
| 20260830130007 | 48 | 63 | 0.0 | 1.0 | 0.00 | 0.00 | 0.00 | 65 | 1010.7 |
| 20260830124505 | 47 | 39 | 0.0 | 0.0 | 0.00 | 0.00 | 0.00 | 63 | 1010.4 |
| 20260830123032 | 47 | 39 | 0.0 | 1.0 | 0.00 | 0.00 | 0.00 | 62 | 1010.2 |
| 20260830121530 | 47 | 37 | 0.0 | 1.0 | 0.00 | 0.00 | 0.00 | 61 | 1009.9 |
| 20260830120029 | 47 | 37 | 0.0 | 3.0 | 0.00 | 0.00 | 0.00 | 60 | 1009.6 |
| 20260830114526 | 52 | 115 | 0.0 | 2.0 | 0.00 | 0.00 | 0.00 | 49 | 1009.4 |
| 20260830113023 | 52 | 209 | 0.0 | 4.0 | 0.00 | 0.00 | 0.00 | 50 | 1009.4 |
| 20260830111528 | 53 | 150 | 0.0 | 0.0 | 0.00 | 0.00 | 0.00 | 49 | 1009.4 |
| 20260830110014 | 54 | 207 | 0.0 | 1.0 | 0.00 | 0.00 | 0.00 | 47 | 1009.5 |
| 20260830104513 | 57 | 146 | 0.0 | 1.0 | 0.00 | 0.00 | 0.00 | 42 | 1009.2 |
| 20260830103013 | 57 | 137 | 0.0 | 1.0 | 0.00 | 0.00 | 0.00 | 43 | 1009.0 |
| 20260830101512 | 58 | 139 | 0.0 | 0.0 | 0.00 | 0.00 | 0.00 | 45 | 1009.1 |
| 20260830100009 | 58 | 135 | 0.0 | 0.0 | 0.00 | 0.00 | 0.00 | 46 | 1009.1 |
| 20260830094509 | 57 | 134 | 0.0 | 1.0 | 0.00 | 0.00 | 0.00 | 47 | 1009.2 |
| 20260830093013 | 58 | 152 | 0.0 | 1.0 | 0.00 | 0.00 | 0.00 | 47 | 1009.2 |
| 20260830091516 | 57 | 136 | 0.0 | 1.0 | 0.00 | 0.00 | 0.00 | 49 | 1009.1 |
| 20260830090004 | 56 | 151 | 1.0 | 3.0 | 0.00 | 0.00 | 0.00 | 51 | 1009.1 |
| 20260830084503 | 54 | 151 | 0.0 | 0.0 | 0.00 | 0.00 | 0.00 | 57 | 1009.2 |
| 20260830083108 | 54 | 276 | 0.0 | 0.0 | 0.00 | 0.00 | 0.00 | 56 | 1009.1 |
| 20260830083001 | 54 | 276 | 0.0 | 0.0 | 0.00 | 0.00 | 0.00 | 56 | 1009.1 |
| 20260830081557 | 55 | 276 | 0.0 | 5.0 | 0.00 | 0.00 | 0.00 | 55 | 1008.9 |
| 20260830080051 | 58 | 149 | 0.0 | 2.0 | 0.00 | 0.00 | 0.00 | 51 | 1008.7 |
| 20260830074550 | 59 | 143 | 0.0 | 3.0 | 0.00 | 0.00 | 0.00 | 49 | 1008.5 |
| 20260830073051 | 59 | 139 | 0.0 | 2.0 | 0.00 | 0.00 | 0.00 | 49 | 1008.5 |
| 20260830071550 | 59 | 248 | 0.0 | 4.0 | 0.00 | 0.00 | 0.00 | 48 | 1008.6 |
| 20260830070015 | 61 | 139 | 0.0 | 2.0 | 0.00 | 0.00 | 0.00 | 45 | 1008.7 |
| 20260830064514 | 62 | 131 | 0.0 | 2.0 | 0.00 | 0.00 | 0.00 | 44 | 1008.6 |
| 20260830063009 | 62 | 143 | 0.0 | 2.0 | 0.00 | 0.00 | 0.00 | 44 | 1008.6 |
| 20260830061510 | 63 | 152 | 0.0 | 1.0 | 0.00 | 0.00 | 0.00 | 42 | 1008.5 |